SWR9801 EVRA-LSZH

Flight info

Callsign SWR9801
Flight time N/A
Altitude 34000
Route VALED DCT ADAXA DCT NINTA DCT DIPEB DCT ANFEV DCT PENOR/N0452F360 DCT BODLA DCT VEVAS DCT AMOSA/N0455F300 N869 TEDGO/N0454F310 T724 RILAX
Aircraft A320/M-SDE3FGHIRWY/LB1

Departure

Time 2026-05-05 19:21
Airport Riga International Airport (EVRA)

Arrival

Time N/A
Airport Zürich Airport (LSZH)
Time Latitude Longitude Altitude Speed Heading
2026-05-05 18:28 56.92292 23.97758 43 ft 0 kts 185°
2026-05-05 19:10 56.92305 23.97760 43 ft 4 kts 185°
2026-05-05 19:11 56.92332 23.97764 44 ft 4 kts 185°
2026-05-05 19:11 56.92359 23.97769 41 ft 4 kts 185°
2026-05-05 19:11 56.92382 23.97772 45 ft 1 kts 185°
2026-05-05 19:14 56.92375 23.97771 44 ft 3 kts 187°
2026-05-05 19:14 56.92368 23.97726 46 ft 4 kts 261°
2026-05-05 19:15 56.92367 23.97657 46 ft 5 kts 270°
2026-05-05 19:15 56.92369 23.97573 46 ft 7 kts 273°
2026-05-05 19:15 56.92334 23.97500 46 ft 12 kts 193°
2026-05-05 19:15 56.92224 23.97483 46 ft 17 kts 185°
2026-05-05 19:16 56.92105 23.97463 46 ft 20 kts 186°
2026-05-05 19:16 56.91954 23.97441 46 ft 22 kts 181°
2026-05-05 19:16 56.91801 23.97424 46 ft 22 kts 187°
2026-05-05 19:16 56.91654 23.97399 46 ft 21 kts 185°
2026-05-05 19:17 56.91514 23.97378 46 ft 20 kts 186°
2026-05-05 19:17 56.91386 23.97354 45 ft 17 kts 186°
2026-05-05 19:17 56.91273 23.97335 45 ft 15 kts 185°
2026-05-05 19:17 56.91163 23.97318 45 ft 19 kts 185°
2026-05-05 19:18 56.91034 23.97297 46 ft 19 kts 188°
2026-05-05 19:18 56.90927 23.97201 46 ft 16 kts 202°
2026-05-05 19:18 56.90825 23.97169 45 ft 14 kts 185°
2026-05-05 19:18 56.90734 23.97154 43 ft 12 kts 185°
2026-05-05 19:19 56.90666 23.97101 43 ft 10 kts 227°
2026-05-05 19:19 56.90647 23.96992 45 ft 8 kts 270°
2026-05-05 19:19 56.90660 23.96862 45 ft 10 kts 289°
2026-05-05 19:19 56.90705 23.96848 45 ft 7 kts 13°
2026-05-05 19:20 56.90732 23.96854 44 ft 0 kts
2026-05-05 19:20 56.90839 23.96870 43 ft 48 kts
2026-05-05 19:20 56.91401 23.96964 46 ft 111 kts
2026-05-05 19:20 56.92361 23.97119 50 ft 160 kts
2026-05-05 19:21 56.93485 23.97296 652 ft 159 kts
2026-05-05 19:21 56.94589 23.97442 1367 ft 160 kts
2026-05-05 19:21 56.95704 23.97632 2004 ft 161 kts
2026-05-05 19:21 56.96812 23.97845 2626 ft 160 kts
2026-05-05 19:22 56.97926 23.98038 3180 ft 162 kts
2026-05-05 19:22 56.99104 23.98219 3481 ft 180 kts
2026-05-05 19:22 57.00429 23.98420 3712 ft 202 kts
2026-05-05 19:22 57.01903 23.98651 3948 ft 222 kts
2026-05-05 19:23 57.03508 23.98891 4301 ft 239 kts 357°
2026-05-05 19:23 57.05166 23.98285 4712 ft 252 kts 329°
2026-05-05 19:23 57.06474 23.96175 5329 ft 253 kts 300°
2026-05-05 19:23 57.07051 23.93165 6111 ft 252 kts 271°
2026-05-05 19:24 57.06835 23.89997 6911 ft 251 kts 256°
2026-05-05 19:24 57.06445 23.86856 7751 ft 252 kts 256°
2026-05-05 19:24 57.06045 23.83714 8590 ft 253 kts 256°
2026-05-05 19:24 57.05640 23.80551 9419 ft 255 kts 256°
2026-05-05 19:25 57.05234 23.77366 10135 ft 261 kts 256°
2026-05-05 19:25 57.04805 23.73980 10342 ft 283 kts 256°
2026-05-05 19:25 57.04342 23.70311 10497 ft 306 kts 256°
2026-05-05 19:25 57.03851 23.66403 10821 ft 320 kts 256°
2026-05-05 19:26 57.03340 23.62331 11451 ft 325 kts 256°
2026-05-05 19:26 57.02828 23.58273 12135 ft 327 kts 256°
2026-05-05 19:26 57.02312 23.54193 12838 ft 330 kts 256°
2026-05-05 19:26 57.01797 23.50135 13511 ft 332 kts 256°
2026-05-05 19:27 57.01262 23.45938 14137 ft 334 kts 256°
2026-05-05 19:27 57.00727 23.41768 14748 ft 336 kts 256°
2026-05-05 19:27 57.00186 23.37588 15355 ft 338 kts 256°
2026-05-05 19:27 56.99640 23.33375 15931 ft 340 kts 256°
2026-05-05 19:28 56.99094 23.29144 16508 ft 342 kts 256°
2026-05-05 19:28 56.98544 23.24883 17085 ft 344 kts 256°
2026-05-05 19:28 56.97988 23.20607 17642 ft 346 kts 256°
2026-05-05 19:28 56.97427 23.16305 18194 ft 348 kts 256°
2026-05-05 19:29 56.96862 23.11978 18655 ft 350 kts 256°
2026-05-05 19:29 56.96291 23.07631 19144 ft 352 kts 256°
2026-05-05 19:29 56.95715 23.03256 19621 ft 353 kts 255°
2026-05-05 19:29 56.95136 22.98869 20092 ft 355 kts 255°
2026-05-05 19:30 56.94554 22.94466 20558 ft 357 kts 255°
2026-05-05 19:30 56.93972 22.90065 21048 ft 358 kts 255°
2026-05-05 19:30 56.93380 22.85595 21488 ft 360 kts 255°
2026-05-05 19:30 56.92785 22.81122 21882 ft 363 kts 255°
2026-05-05 19:31 56.92183 22.76626 22290 ft 365 kts 255°
2026-05-05 19:31 56.91574 22.72087 22711 ft 367 kts 255°
2026-05-05 19:31 56.90962 22.67529 23128 ft 369 kts 255°
2026-05-05 19:31 56.90345 22.62958 23524 ft 371 kts 254°
2026-05-05 19:32 56.89717 22.58354 23862 ft 373 kts 254°
2026-05-05 19:32 56.89085 22.53743 24191 ft 375 kts 254°
2026-05-05 19:32 56.88448 22.49105 24514 ft 377 kts 254°
2026-05-05 19:32 56.87807 22.44435 24834 ft 379 kts 254°
2026-05-05 19:33 56.87165 22.39745 25157 ft 380 kts 255°
2026-05-05 19:33 56.86521 22.35034 25474 ft 382 kts 255°
2026-05-05 19:33 56.85872 22.30307 25783 ft 384 kts 254°
2026-05-05 19:33 56.85214 22.25562 26097 ft 386 kts 254°
2026-05-05 19:34 56.84559 22.20859 26394 ft 388 kts 254°
2026-05-05 19:34 56.83880 22.16010 26697 ft 390 kts 255°
2026-05-05 19:34 56.83213 22.11240 26933 ft 393 kts 255°
2026-05-05 19:35 56.81850 22.01517 27457 ft 397 kts 255°
2026-05-05 19:35 56.81160 21.96627 27719 ft 399 kts 255°
2026-05-05 19:35 56.80694 21.93319 27896 ft 400 kts 255°
2026-05-05 19:35 56.79767 21.86780 28248 ft 402 kts 255°
2026-05-05 19:36 56.79061 21.81824 28493 ft 404 kts 255°
2026-05-05 19:36 56.78581 21.78468 28664 ft 405 kts 255°
2026-05-05 19:36 56.77877 21.73550 29014 ft 404 kts 255°
2026-05-05 19:36 56.77166 21.68588 29389 ft 403 kts 255°
2026-05-05 19:37 56.76455 21.63648 29758 ft 402 kts 255°
2026-05-05 19:37 56.75742 21.58719 30092 ft 402 kts 255°
2026-05-05 19:37 56.75030 21.53804 30388 ft 401 kts 255°
2026-05-05 19:37 56.74317 21.48891 30677 ft 401 kts 255°
2026-05-05 19:38 56.73603 21.43992 30981 ft 401 kts 255°
2026-05-05 19:38 56.72885 21.39075 31201 ft 402 kts 255°
2026-05-05 19:38 56.72161 21.34139 31444 ft 403 kts 255°
2026-05-05 19:38 56.71437 21.29229 31718 ft 403 kts 255°
2026-05-05 19:39 56.70710 21.24311 32006 ft 402 kts 255°
2026-05-05 19:39 56.69981 21.19398 32289 ft 402 kts 255°
2026-05-05 19:39 56.69251 21.14490 32575 ft 401 kts 255°
2026-05-05 19:39 56.68532 21.09651 32851 ft 401 kts 255°
2026-05-05 19:40 56.67806 21.04767 33104 ft 401 kts 255°
2026-05-05 19:40 56.67074 20.99860 33369 ft 401 kts 255°
2026-05-05 19:40 56.66342 20.94985 33640 ft 400 kts 255°
2026-05-05 19:40 56.65605 20.90104 33874 ft 401 kts 255°
2026-05-05 19:41 56.64863 20.85224 33925 ft 402 kts 255°
2026-05-05 19:41 56.63372 20.75437 33933 ft 402 kts 255°
2026-05-05 19:42 56.61875 20.65629 33932 ft 403 kts 255°
2026-05-05 19:42 56.60374 20.55878 33934 ft 404 kts 255°
2026-05-05 19:43 56.58863 20.46076 33943 ft 404 kts 255°
2026-05-05 19:43 56.57339 20.36255 33945 ft 404 kts 255°
2026-05-05 19:44 56.55796 20.26413 33932 ft 404 kts 255°
2026-05-05 19:44 56.54266 20.16702 33909 ft 403 kts 255°
2026-05-05 19:45 56.52716 20.06929 33910 ft 403 kts 255°
2026-05-05 19:45 56.51161 19.97162 33931 ft 404 kts 254°
2026-05-05 19:46 56.49593 19.87400 33930 ft 404 kts 254°
2026-05-05 19:46 56.48017 19.77641 33927 ft 404 kts 254°
2026-05-05 19:47 56.46450 19.67942 33923 ft 404 kts 254°
2026-05-05 19:47 56.44867 19.58195 33923 ft 404 kts 254°
2026-05-05 19:48 56.43273 19.48451 33934 ft 404 kts 254°
2026-05-05 19:48 56.41663 19.38722 33929 ft 404 kts 254°
2026-05-05 19:49 56.40056 19.28995 33917 ft 404 kts 254°
2026-05-05 19:49 56.38443 19.19287 33920 ft 404 kts 254°
2026-05-05 19:50 56.36831 19.09640 33927 ft 404 kts 254°
2026-05-05 19:50 56.35194 18.99956 33926 ft 404 kts 253°
2026-05-05 19:51 56.33546 18.90272 33920 ft 404 kts 253°
2026-05-05 19:51 56.31903 18.80600 33920 ft 404 kts 253°
2026-05-05 19:52 56.30250 18.70919 33920 ft 404 kts 253°
2026-05-05 19:52 56.28591 18.61269 33935 ft 403 kts 253°
2026-05-05 19:53 56.26925 18.51644 33933 ft 402 kts 253°
2026-05-05 19:53 56.25253 18.42054 33913 ft 402 kts 253°
2026-05-05 19:54 56.23582 18.32517 33907 ft 403 kts 253°
2026-05-05 19:54 56.21952 18.22871 33908 ft 404 kts 255°
2026-05-05 19:55 56.20514 18.13121 33914 ft 404 kts 256°
2026-05-05 19:55 56.19084 18.03361 33917 ft 404 kts 252°
2026-05-05 19:56 56.16452 17.94447 33922 ft 408 kts 233°
2026-05-05 19:56 56.12570 17.87068 33924 ft 410 kts 229°
2026-05-05 19:57 56.08610 17.79726 33892 ft 410 kts 229°
2026-05-05 19:57 56.04651 17.72377 33908 ft 411 kts 229°
2026-05-05 19:58 56.00668 17.65028 33910 ft 411 kts 229°
2026-05-05 19:58 55.96678 17.57694 33914 ft 412 kts 229°
2026-05-05 19:59 55.92683 17.50354 33919 ft 412 kts 229°
2026-05-05 19:59 55.88706 17.43092 33920 ft 413 kts 229°
2026-05-05 20:00 55.84693 17.35789 33917 ft 412 kts 229°
2026-05-05 20:00 55.80677 17.28538 33942 ft 411 kts 226°
2026-05-05 20:01 55.75856 17.22955 33946 ft 421 kts 207°
2026-05-05 20:01 55.70284 17.19736 33939 ft 424 kts 202°
2026-05-05 20:02 55.64702 17.16422 33932 ft 419 kts 210°
2026-05-05 20:02 55.59838 17.11080 33927 ft 410 kts 220°
2026-05-05 20:03 55.55187 17.05285 33943 ft 408 kts 220°
2026-05-05 20:03 55.50549 16.99547 33944 ft 407 kts 220°
2026-05-05 20:04 55.45949 16.93864 33941 ft 406 kts 220°
2026-05-05 20:04 55.41333 16.88171 33936 ft 405 kts 220°
2026-05-05 20:05 55.36721 16.82491 33946 ft 403 kts 220°
2026-05-05 20:05 55.32136 16.76853 33958 ft 402 kts 220°
2026-05-05 20:06 55.27591 16.71285 33945 ft 401 kts 220°
2026-05-05 20:06 55.23006 16.65694 33934 ft 401 kts 220°
2026-05-05 20:07 55.18417 16.60122 33928 ft 401 kts 220°
2026-05-05 20:07 55.13839 16.54567 33908 ft 400 kts 220°
2026-05-05 20:08 55.09287 16.49048 33932 ft 398 kts 220°
2026-05-05 20:08 55.04763 16.43588 33938 ft 397 kts 220°
2026-05-05 20:09 55.00223 16.38117 33939 ft 396 kts 220°
2026-05-05 20:09 54.95688 16.32675 33937 ft 396 kts 220°
2026-05-05 20:10 54.91143 16.27247 33934 ft 396 kts 220°
2026-05-05 20:10 54.86632 16.21862 33934 ft 396 kts 220°
2026-05-05 20:11 54.82094 16.16448 33931 ft 396 kts 220°
2026-05-05 20:11 54.77558 16.11054 33926 ft 396 kts 220°
2026-05-05 20:12 54.73014 16.05679 33921 ft 395 kts 220°
2026-05-05 20:12 54.68501 16.00356 33898 ft 395 kts 220°
2026-05-05 20:13 54.63965 15.95021 33907 ft 394 kts 220°
2026-05-05 20:13 54.59435 15.89703 33908 ft 394 kts 220°
2026-05-05 20:14 54.54906 15.84399 33909 ft 394 kts 220°
2026-05-05 20:14 54.50399 15.79142 33907 ft 394 kts 220°
2026-05-05 20:15 54.45857 15.73850 33886 ft 394 kts 220°
2026-05-05 20:15 54.41308 15.68573 33887 ft 395 kts 220°
2026-05-05 20:16 54.36756 15.63294 33896 ft 395 kts 220°
2026-05-05 20:16 54.32225 15.58057 33897 ft 395 kts 220°
2026-05-05 20:17 54.27668 15.52797 33893 ft 395 kts 220°
2026-05-05 20:17 54.23101 15.47545 33862 ft 396 kts 219°
2026-05-05 20:18 54.18518 15.42301 33871 ft 398 kts 219°
2026-05-05 20:18 54.13911 15.37046 33879 ft 398 kts 219°
2026-05-05 20:19 54.09335 15.31852 33881 ft 399 kts 219°
2026-05-05 20:19 54.04717 15.26605 33881 ft 399 kts 219°
2026-05-05 20:20 54.00097 15.21364 33867 ft 400 kts 218°
2026-05-05 20:20 53.95464 15.16134 33869 ft 400 kts 218°
2026-05-05 20:21 53.90859 15.10945 33879 ft 400 kts 218°
2026-05-05 20:21 53.86216 15.05721 33874 ft 400 kts 218°
2026-05-05 20:22 53.81573 15.00505 33878 ft 400 kts 218°
2026-05-05 20:22 53.76926 14.95305 33856 ft 401 kts 218°
2026-05-05 20:23 53.72296 14.90155 33868 ft 401 kts 218°
2026-05-05 20:23 53.67633 14.84969 33880 ft 401 kts 218°
2026-05-05 20:24 53.62964 14.79790 33883 ft 402 kts 218°
2026-05-05 20:24 53.58290 14.74625 33860 ft 402 kts 217°
2026-05-05 20:25 53.53609 14.69471 33857 ft 403 kts 217°